{"data":{"norad_id":65021,"epoch":"2026-09-20T22:36:21.047328Z","epoch_age_seconds":85778,"freshness":"FRESH","line1":"1 65021U 25161G   26263.94191027  .00013564  00000+0  41160-3 0  9994","line2":"2 65021  53.1596 105.8739 0001267  98.6717 261.4430 15.34418968 65237","mean_motion":15.34418968,"eccentricity":0.0001267,"inclination_deg":53.1596,"raan_deg":105.8739,"arg_perigee_deg":98.6717,"mean_anomaly_deg":261.443,"bstar":0.0004116,"rev_number":6523,"period_min":93.846597965152,"perigee_km":461.78013657899,"apogee_km":463.5135912101,"semimajor_km":6840.7838638945,"source":"CELESTRAK","updated_at":"2026-09-21T09:00:35.492648Z"}}